Wind_Speed
16 16 17 17 16 16 15 15 12 10 10 10 10 10 10 11 9 9 9 8 8 10 11 12 13 15 14 14 15 14 14 14 13 13 12 12 10 9 9 10 11 10 10
13 15 15 15 16 15 15 12 9 10 9 9 10 10 12 11 11 11 12 11 12 13 12 13 14 14 13 13 13 13 12 12 13 13 13 10 9 10 10 11 11 11 10
14 14 15 15 15 14 13 10 9 8 8 8 9 9 12 13 13 14 15 15 15 14 13 13 14 13 12 12 12 11 12 11 11 11 12 13 10 10 10 11 12 12 11
14 15 15 14 14 12 10 9 7 7 7 9 8 9 11 13 14 14 15 15 15 13 12 12 12 12 11 11 11 10 11 11 11 8 10 11 12 8 10 11 12 11 12
15 15 14 13 13 11 7 8 5 6 8 8 9 10 12 12 13 13 13 14 13 12 12 11 11 11 10 10 11 10 9 7 8 9 8 11 11 9 7 9 11 11 10
15 14 13 12 11 9 6 6 7 8 9 8 10 12 12 12 13 13 12 12 12 11 10 9 9 8 8 8 9 7 7 4 5 6 8 8 10 8 6 7 9 10 10
10 12 13 13 11 8 7 8 8 10 10 9 11 12 12 11 12 12 11 11 11 9 9 10 10 8 6 6 5 4 4 3 5 5 7 8 7 7 6 5 6 8 9
9 11 12 13 10 7 7 9 10 11 10 11 12 12 11 11 11 10 10 9 9 8 9 9 8 8 5 4 5 3 3 2 2 5 2 4 7 7 5 6 5 6 9
10 12 14 14 10 7 8 10 11 11 11 11 12 12 11 10 10 10 9 8 7 6 7 6 7 12 2 5 5 4 2 3 1 2 1 1 4 6 6 5 6 4 5
15 15 16 13 9 9 9 10 11 12 13 12 12 11 11 9 9 10 8 6 5 5 5 7 13 15 4 3 4 4 3 4 4 8 2 8 4 3 4 6 6 7 6
17 15 14 11 11 10 11 11 11 12 12 11 11 10 10 9 9 8 8 5 5 4 5 6 9 13 5 4 3 8 4 10 8 9 8 15 8 3 6 6 7 7 8
10 14 14 11 11 11 11 11 11 12 10 9 9 9 8 6 8 7 8 7 5 3 5 7 8 7 8 1 8 9 10 10 7 8 13 9 17 11 7 7 7 8 8
3 10 13 11 12 10 10 10 9 9 11 9 6 6 6 6 6 6 5 5 4 2 4 6 6 7 7 8 9 9 8 11 4 6 8 12 13 16 17 10 7 6 7
12 13 14 13 15 11 9 10 10 10 7 8 6 2 3 4 9 5 5 2 2 5 7 6 8 7 6 8 10 10 10 10 8 4 7 6 6 7 15 17 13 8 9
8 12 12 10 8 8 6 8 9 8 8 6 4 3 2 4 6 4 3 5 4 2 2 7 9 7 9 8 11 13 14 10 8 9 7 5 4 4 4 22 20 15 15
4 4 9 8 6 4 5 0 6 6 9 2 4 3 2 3 3 1 3 2 4 4 2 5 5 9 9 10 11 11 11 9 7 9 11 5 3 0 2 7 27 24 24
11 8 8 6 6 5 4 3 4 5 6 6 2 2 3 2 2 4 3 2 5 4 2 5 5 6 8 10 9 10 8 11 8 9 2 5 3 1 1 1 9 17 30
9 7 9 9 7 7 7 6 6 8 7 3 5 4 3 1 1 3 3 2 3 7 6 5 3 4 7 8 8 9 9 8 9 5 2 5 6 1 2 0 4 3 12
10 6 6 7 10 9 8 8 8 10 6 3 5 5 5 2 1 2 5 4 4 4 6 9 8 8 8 10 10 9 10 10 8 8 4 4 7 3 3 2 4 5 3
8 7 8 5 4 5 6 5 5 7 4 1 5 4 4 0 2 2 3 3 3 6 7 7 8 10 10 11 11 12 12 11 9 7 5 7 5 4 6 2 5 4 3
5 7 8 5 3 3 4 3 3 4 4 4 3 1 2 2 1 2 3 3 4 4 5 6 8 9 11 11 9 9 11 12 13 12 10 6 4 5 7 5 4 4 4
6 8 6 4 3 3 3 4 3 4 2 1 4 3 1 2 3 2 3 3 4 5 6 7 7 8 8 12 13 13 10 11 16 14 14 10 10 11 6 5 6 5 5
3 8 6 4 4 3 3 2 2 0 4 4 4 4 3 1 3 3 3 4 5 6 7 6 7 6 8 13 15 16 16 16 17 17 20 17 16 13 10 8 6 9 5
2 4 8 6 5 4 4 4 4 3 5 5 8 6 8 5 3 4 5 6 7 8 10 9 9 10 11 12 13 15 16 18 22 22 21 21 20 19 15 12 10 8 7
3 1 3 6 6 6 8 8 7 6 5 4 4 6 6 5 4 2 2 4 7 9 11 11 11 11 11 12 13 14 17 21 24 25 23 20 23 23 18 14 20 14 10
7 4 4 7 8 6 6 7 8 8 6 5 2 2 3 3 4 3 3 5 6 8 10 9 7 8 9 10 11 13 19 23 24 25 26 25 21 22 22 23 22 19 14
Wind_Direction
141 130 132 134 134 133 134 127 115 101 92 84 91 100 113 109 117 131 144 140 129 118 112 102 97 97 99 103 105 107 107 105 96 88 86 91 104 111 110 113 115 114 119
150 136 140 139 140 133 134 127 115 96 86 87 88 98 102 104 111 112 117 120 119 115 109 100 99 98 102 101 104 106 106 105 109 113 112 118 119 117 114 111 109 101 110
152 145 141 143 138 138 137 128 109 85 91 99 94 93 92 105 108 106 110 115 113 108 105 100 100 102 102 96 98 102 100 103 105 112 118 120 113 109 111 109 102 103 110
136 138 139 140 145 143 142 128 103 91 98 95 94 92 98 108 110 109 112 115 111 108 105 103 101 102 106 108 107 104 105 103 110 116 122 118 112 107 111 110 94 95 110
138 134 132 136 140 138 143 132 106 100 99 94 98 98 108 111 111 108 111 110 107 105 100 98 99 102 102 104 105 109 104 104 118 122 113 117 113 113 108 106 110 108 104
144 141 137 135 132 129 136 131 118 108 99 99 104 104 106 111 107 107 105 106 102 101 93 93 96 96 101 101 105 120 123 121 90 122 103 116 113 115 117 118 122 123 114
150 152 149 145 130 120 126 119 120 114 100 103 108 106 106 108 109 108 107 105 108 93 83 81 87 89 87 96 109 116 102 121 120 102 127 116 115 123 131 141 136 130 126
187 169 158 147 141 121 123 124 119 109 106 108 111 107 108 110 111 110 103 109 102 91 87 76 79 62 58 100 103 98 113 70 52 99 97 131 139 137 145 157 153 151 148
136 146 153 150 149 132 127 127 119 114 113 114 110 109 113 113 112 109 112 114 90 86 81 67 28 2 162 115 106 102 127 154 157 194 64 226 186 155 160 167 163 179 165
113 122 141 143 140 138 136 131 126 122 118 118 113 111 115 119 113 114 114 109 100 79 74 59 42 27 90 114 131 124 218 179 178 250 216 229 217 168 165 183 183 178 187
125 133 136 138 137 142 141 136 130 128 121 119 117 116 120 126 121 123 117 104 95 71 50 47 40 49 114 168 259 280 323 283 286 230 213 234 227 194 197 202 196 192 194
121 134 135 142 145 150 147 142 136 127 120 115 118 115 117 129 126 132 125 117 103 84 49 51 54 40 50 9 334 333 337 325 304 282 265 243 226 225 218 200 199 205 219
190 150 138 154 143 144 153 136 137 124 121 119 115 116 110 129 128 136 108 99 100 72 60 63 54 61 33 19 357 353 13 20 339 333 321 284 273 228 226 222 209 211 216
153 147 140 151 154 163 162 142 167 138 142 138 127 102 114 129 100 99 73 76 99 23 19 26 76 64 57 18 3 11 23 15 18 22 341 339 325 325 226 233 229 232 230
136 141 139 137 135 152 123 168 150 127 151 126 114 99 4 38 104 126 119 132 118 44 8 5 40 20 40 25 0 360 19 14 13 5 353 330 328 13 268 217 227 230 235
200 158 144 135 137 163 153 243 116 123 106 351 346 184 99 40 65 120 110 24 63 61 24 54 10 24 8 18 4 355 353 3 350 343 327 318 350 252 31 254 223 222 230
185 186 152 167 169 181 169 168 145 147 169 209 91 277 122 92 20 350 23 339 35 40 293 295 6 359 349 350 353 350 336 348 359 350 60 323 337 271 45 84 227 229 229
206 166 170 181 195 197 199 198 186 210 206 182 230 222 256 329 279 276 338 18 1 19 345 318 7 7 0 352 351 352 350 348 1 328 300 243 290 306 32 343 259 252 226
216 197 219 194 208 202 206 207 203 238 227 187 172 181 200 199 318 271 290 0 323 6 304 344 349 353 343 344 341 347 340 334 326 19 351 290 261 286 314 315 265 248 232
209 192 214 237 179 191 189 207 224 247 253 235 244 186 153 6 266 256 308 318 43 21 5 359 357 356 4 351 337 338 339 345 338 12 287 326 257 315 305 285 255 242 250
178 205 220 239 206 177 172 199 210 254 191 211 252 91 265 247 307 338 348 21 15 25 2 350 349 354 355 349 342 328 341 333 344 334 326 335 351 349 305 298 248 253 242
160 202 213 224 196 187 177 194 218 224 164 344 334 335 255 346 16 31 21 352 354 350 345 346 347 346 344 337 336 334 335 328 338 316 329 329 287 318 320 337 271 258 248
159 164 218 228 229 204 199 216 236 288 83 88 34 360 67 81 25 28 5 11 0 358 1 3 348 349 349 340 338 333 331 332 320 316 311 296 298 311 297 292 299 281 263
174 149 173 221 227 196 184 177 173 134 101 75 62 68 91 112 96 63 52 34 18 4 348 348 340 338 347 343 336 335 331 325 322 314 299 293 290 290 278 280 282 284 258
250 179 160 187 187 146 142 149 144 145 139 142 114 72 77 72 72 109 74 9 1 351 344 339 340 340 343 343 339 335 333 329 325 314 314 297 284 275 278 273 282 279 271
302 301 169 210 184 178 154 153 159 170 180 185 112 82 18 5 326 304 25 23 25 16 4 355 354 350 346 349 347 342 346 345 340 325 314 310 288 265 263 272 274 284 276
Height
3198 3200 3202 3203 3205 3206 3207 3209 3208 3208 3208 3208 3209 3209 3210 3209 3210 3210 3210 3211 3213 3215 3215 3215 3215 3215 3215 3215 3216 3216 3216 3216 3216 3216 3217 3217 3218 3219 3219 3219 3218 3219 3219
3200 3201 3203 3205 3206 3207 3209 3209 3210 3209 3210 3210 3210 3212 3211 3211 3211 3211 3211 3213 3215 3216 3217 3217 3217 3218 3217 3218 3218 3218 3218 3218 3218 3218 3219 3220 3221 3220 3219 3220 3220 3219 3220
3201 3203 3204 3206 3207 3209 3210 3211 3211 3211 3211 3212 3212 3212 3211 3212 3212 3212 3213 3215 3216 3217 3218 3219 3220 3219 3220 3220 3220 3220 3220 3220 3220 3220 3220 3221 3222 3223 3223 3221 3220 3220 3220
3202 3204 3205 3206 3208 3210 3211 3212 3212 3213 3214 3213 3214 3213 3213 3214 3214 3215 3215 3216 3217 3218 3219 3220 3221 3221 3222 3222 3223 3223 3223 3223 3223 3223 3223 3223 3224 3225 3224 3223 3223 3222 3221
3204 3205 3206 3208 3210 3211 3212 3213 3214 3215 3215 3215 3215 3215 3215 3216 3217 3217 3218 3219 3220 3220 3221 3222 3223 3223 3224 3224 3225 3226 3226 3225 3225 3224 3226 3225 3224 3225 3226 3226 3224 3224 3225
3205 3206 3207 3209 3211 3212 3214 3214 3215 3216 3216 3218 3217 3217 3217 3218 3219 3220 3221 3221 3223 3223 3223 3223 3224 3225 3225 3225 3226 3226 3226 3226 3226 3226 3227 3226 3226 3226 3227 3227 3226 3226 3225
3206 3207 3209 3211 3212 3214 3216 3216 3217 3217 3218 3219 3219 3219 3220 3221 3221 3222 3223 3224 3224 3224 3225 3225 3225 3226 3226 3226 3227 3227 3228 3227 3228 3227 3226 3227 3227 3226 3228 3228 3228 3227 3227
3207 3208 3210 3211 3214 3215 3216 3217 3218 3219 3220 3220 3220 3221 3222 3223 3224 3224 3225 3225 3226 3225 3226 3226 3226 3227 3227 3227 3227 3228 3228 3227 3227 3227 3227 3227 3227 3226 3228 3228 3229 3229 3228
3207 3208 3210 3213 3215 3216 3218 3219 3220 3221 3221 3221 3221 3222 3224 3224 3225 3226 3226 3227 3227 3227 3227 3227 3228 3227 3226 3227 3227 3227 3227 3227 3226 3226 3228 3228 3227 3225 3226 3228 3228 3229 3229
3208 3210 3212 3214 3216 3217 3219 3220 3221 3221 3222 3222 3222 3224 3224 3225 3225 3226 3227 3228 3228 3228 3228 3228 3228 3226 3227 3227 3227 3225 3224 3224 3226 3225 3225 3225 3225 3225 3226 3227 3228 3228 3229
3211 3212 3214 3215 3217 3218 3220 3221 3222 3222 3222 3223 3224 3225 3226 3226 3226 3227 3227 3228 3229 3229 3229 3229 3229 3227 3226 3227 3226 3223 3225 3225 3224 3219 3222 3225 3226 3224 3223 3225 3226 3227 3227
3212 3213 3215 3216 3218 3220 3221 3221 3222 3223 3224 3224 3225 3226 3226 3227 3227 3228 3228 3229 3229 3229 3230 3231 3230 3229 3229 3227 3227 3226 3225 3224 3222 3224 3221 3222 3221 3223 3224 3223 3225 3225 3227
3213 3214 3216 3218 3219 3221 3222 3222 3223 3224 3224 3226 3227 3227 3227 3228 3228 3229 3230 3229 3229 3229 3229 3229 3230 3229 3228 3228 3228 3227 3226 3224 3222 3222 3220 3218 3219 3220 3222 3223 3223 3224 3225
3213 3215 3216 3219 3220 3220 3222 3223 3224 3224 3225 3227 3228 3228 3228 3228 3229 3230 3230 3229 3229 3231 3230 3230 3230 3230 3228 3227 3227 3227 3226 3224 3222 3222 3220 3219 3217 3216 3218 3221 3222 3223 3222
3213 3215 3216 3218 3219 3221 3222 3223 3224 3224 3226 3227 3227 3227 3228 3228 3228 3229 3230 3230 3230 3231 3229 3231 3230 3230 3228 3227 3226 3225 3225 3223 3221 3220 3220 3219 3216 3215 3215 3217 3218 3219 3220
3214 3215 3217 3218 3220 3221 3221 3222 3223 3224 3224 3225 3226 3228 3229 3229 3229 3229 3229 3229 3228 3229 3229 3230 3229 3229 3227 3226 3226 3225 3223 3223 3221 3220 3218 3218 3217 3216 3215 3214 3214 3215 3216
3217 3217 3218 3220 3221 3223 3223 3224 3223 3223 3225 3227 3228 3229 3229 3229 3229 3229 3230 3229 3229 3229 3229 3229 3229 3229 3227 3226 3226 3224 3224 3222 3221 3218 3216 3217 3217 3215 3213 3212 3212 3212 3213
3216 3218 3220 3221 3222 3223 3223 3224 3225 3225 3225 3225 3228 3229 3229 3229 3229 3229 3229 3229 3229 3228 3229 3230 3229 3228 3227 3226 3226 3224 3223 3221 3220 3216 3216 3216 3216 3214 3211 3210 3211 3210 3208
3216 3218 3219 3221 3222 3223 3224 3224 3225 3226 3226 3226 3228 3229 3229 3230 3230 3230 3229 3229 3229 3229 3229 3228 3227 3227 3226 3225 3223 3223 3221 3220 3216 3218 3215 3214 3213 3212 3210 3208 3209 3209 3207
3217 3218 3219 3220 3222 3223 3224 3224 3225 3225 3225 3225 3227 3228 3229 3230 3230 3230 3230 3230 3229 3229 3229 3228 3227 3226 3226 3225 3223 3221 3220 3218 3217 3217 3217 3216 3212 3209 3208 3206 3206 3207 3206
3216 3218 3220 3220 3221 3222 3223 3223 3224 3225 3225 3225 3226 3227 3227 3228 3229 3230 3230 3230 3229 3228 3228 3226 3226 3225 3224 3224 3223 3220 3218 3217 3216 3215 3214 3212 3211 3209 3207 3205 3204 3204 3204
3215 3218 3219 3220 3221 3222 3222 3223 3223 3224 3223 3224 3224 3225 3226 3227 3229 3229 3229 3228 3228 3228 3227 3227 3225 3224 3223 3221 3220 3219 3218 3218 3215 3213 3212 3210 3207 3206 3205 3203 3203 3202 3203
3214 3216 3218 3220 3220 3221 3222 3223 3223 3223 3223 3224 3224 3224 3225 3226 3227 3228 3228 3228 3228 3227 3227 3225 3225 3224 3223 3220 3218 3217 3216 3214 3212 3209 3207 3205 3203 3201 3201 3200 3201 3201 3200
3213 3215 3217 3219 3220 3220 3221 3222 3223 3223 3223 3224 3224 3225 3225 3227 3227 3227 3228 3228 3227 3226 3225 3224 3223 3222 3220 3218 3216 3214 3212 3211 3208 3205 3203 3200 3198 3197 3197 3197 3196 3197 3196
3211 3213 3216 3217 3219 3220 3220 3221 3222 3222 3223 3224 3225 3225 3226 3226 3227 3228 3228 3227 3227 3225 3224 3222 3220 3219 3217 3215 3213 3212 3212 3208 3203 3198 3194 3194 3190 3191 3192 3190 3190 3190 3191
3209 3211 3213 3216 3218 3218 3219 3220 3221 3222 3223 3224 3223 3224 3224 3225 3226 3226 3226 3226 3225 3224 3223 3221 3220 3218 3216 3214 3212 3210 3207 3203 3198 3193 3188 3186 3185 3185 3185 3184 3184 3185 3184